This is the latest recevied weather packets stored in our database for station/object EA1IQY-10. If no packets are shown the sender has not sent any weather packets the latest 10 day(s).
| Time | Temp. | Humidity | Pressure | Rain* | Wind** | Luminosity | Snow |
|---|---|---|---|---|---|---|---|
| 1777558027 | 21.67° C | 100% | 1006.3 hPa | - | - | - | - |
| 1777557127 | 20° C | 100% | 1006.3 hPa | - | - | - | - |
| 1777556226 | 21.11° C | 100% | 1006.2 hPa | - | - | - | - |
| 1777555326 | 21.11° C | 100% | 1006.1 hPa | - | - | - | - |
| 1777554426 | 21.11° C | 100% | 1006.3 hPa | - | - | - | - |
| 1777553526 | 21.11° C | 100% | 1006.2 hPa | - | - | - | - |
| 1777552626 | 19.44° C | 100% | 1006.1 hPa | - | - | - | - |
| 1777551726 | 19.44° C | 100% | 1006.2 hPa | - | - | - | - |
| 1777550826 | 19.44° C | 100% | 1006.1 hPa | - | - | - | - |
| 1777549926 | 20.56° C | 100% | 1006.1 hPa | - | - | - | - |
| 1777549025 | 19.44° C | 100% | 1006.1 hPa | - | - | - | - |
| 1777548125 | 17.78° C | 100% | 1006.2 hPa | - | - | - | - |
| 1777547225 | 19.44° C | 100% | 1006.2 hPa | - | - | - | - |
| 1777546324 | 19.44° C | 100% | 1006.1 hPa | - | - | - | - |
| 1777545424 | 19.44° C | 100% | 1006 hPa | - | - | - | - |
| 1777544619 | 18.33° C | 100% | 1005.8 hPa | - | - | - | - |
| 1777543719 | 18.89° C | 100% | 1005.7 hPa | - | - | - | - |
| 1777543135 | 18.89° C | 100% | 1005.5 hPa | - | - | - | - |
| 1777542819 | 18.89° C | 100% | 1005.5 hPa | - | - | - | - |
| 1777541919 | 18.33° C | 100% | 1005.4 hPa | - | - | - | - |
| 1777541111 | 17.78° C | 100% | 1005.2 hPa | - | - | - | - |
| 1777541019 | 17.78° C | 100% | 1005.2 hPa | - | - | - | - |
| 1777540118 | 18.33° C | 100% | 1005 hPa | - | - | - | - |
| 1777539218 | 19.44° C | 100% | 1004.8 hPa | - | - | - | - |
| 1777538318 | 18.89° C | 100% | 1004.6 hPa | - | - | - | - |
* Rain since midnight (hover to see other rain measurements)
** Current wind speed in m/s (hover to see current wind gust speed)